EN

Hourly Weather Abella de la Conca

Today, 5 December, Saturday

Time Temperature Precipitation Wind Pressure Humidity
00:00 -3°C° 0 mm 1 mps 637 mmHg 81%
01:00 -3°C° 0 mm 1 mps 637 mmHg 81%
02:00 -4°C° 0 mm 1 mps 637 mmHg 80%
03:00 -4°C° 0 mm 1 mps 637 mmHg 79%
04:00 -4°C° 0 mm 1 mps 637 mmHg 78%
05:00 -4°C° 0 mm 1 mps 637 mmHg 77%
06:00 -4°C° 0 mm 1 mps 638 mmHg 76%
07:00 -3°C° 0 mm 1 mps 638 mmHg 71%
08:00 -2°C° 0 mm 1 mps 639 mmHg 67%
09:00 -1°C° 0 mm 1 mps 640 mmHg 62%
10:00 +1°C° 0 mm 1 mps 640 mmHg 58%
11:00 +2°C° 0 mm 1 mps 640 mmHg 54%
12:00 +3°C° 0 mm 1 mps 641 mmHg 50%
13:00 +2°C° 0 mm 2 mps 641 mmHg 53%
14:00 +2°C° 0 mm 2 mps 641 mmHg 56%
15:00 +1°C° 0 mm 2 mps 640 mmHg 58%
16:00 +1°C° 0 mm 1 mps 640 mmHg 66%
17:00 -1°C° 0 mm 1 mps 640 mmHg 74%
18:00 -2°C° 0 mm 1 mps 640 mmHg 81%
19:00 -2°C° 0.1 mm 1 mps 640 mmHg 83%
20:00 -2°C° 0.1 mm 1 mps 640 mmHg 85%
21:00 -2°C° 0.1 mm 1 mps 641 mmHg 87%
22:00 -2°C° 0 mm 1 mps 641 mmHg 86%
23:00 -2°C° 0 mm 1 mps 641 mmHg 86%

Tomorrow, 6 December, Sunday

Time Temperature Precipitation Wind Pressure Humidity
00:00 -2°C° 0 mm 1 mps 641 mmHg 85%
01:00 -2°C° 0 mm 1 mps 641 mmHg 84%
02:00 -2°C° 0 mm 1 mps 641 mmHg 83%
03:00 -3°C° 0 mm 1 mps 641 mmHg 82%
04:00 -3°C° 0 mm 1 mps 641 mmHg 83%
05:00 -3°C° 0 mm 1 mps 641 mmHg 84%
06:00 -3°C° 0 mm 1 mps 641 mmHg 85%
07:00 -2°C° 0.1 mm 1 mps 642 mmHg 81%
08:00 -1°C° 0.1 mm 1 mps 642 mmHg 77%
09:00 0°C° 0.1 mm 1 mps 643 mmHg 74%
10:00 +1°C° 0.1 mm 1 mps 643 mmHg 69%
11:00 +3°C° 0.1 mm 1 mps 644 mmHg 64%
12:00 +3°C° 0.1 mm 2 mps 644 mmHg 59%
13:00 +3°C° 0.1 mm 2 mps 644 mmHg 60%
14:00 +3°C° 0.1 mm 2 mps 644 mmHg 61%
15:00 +3°C° 0.1 mm 2 mps 644 mmHg 62%
16:00 +1°C° 0 mm 2 mps 643 mmHg 68%
17:00 -2°C° 0 mm 2 mps 643 mmHg 75%
18:00 -4°C° 0 mm 2 mps 643 mmHg 81%
19:00 -5°C° 0 mm 2 mps 643 mmHg 80%
20:00 -5°C° 0 mm 2 mps 643 mmHg 79%
21:00 -5°C° 0 mm 2 mps 643 mmHg 78%
22:00 -5°C° 0.1 mm 2 mps 643 mmHg 78%
23:00 -3°C° 0.1 mm 1 mps 643 mmHg 78%

Day after tomorrow, 7 December, Monday

Time Temperature Precipitation Wind Pressure Humidity
00:00 -3°C° 0.1 mm 1 mps 643 mmHg 79%
01:00 -4°C° 0 mm 1 mps 643 mmHg 79%
02:00 -4°C° 0 mm 1 mps 643 mmHg 80%
03:00 -6°C° 0 mm 2 mps 643 mmHg 80%
04:00 -4°C° 0 mm 1 mps 643 mmHg 79%
05:00 -4°C° 0 mm 1 mps 643 mmHg 77%
06:00 -4°C° 0 mm 1 mps 643 mmHg 76%
07:00 -3°C° 0 mm 1 mps 643 mmHg 72%
08:00 -2°C° 0 mm 1 mps 644 mmHg 67%
09:00 -2°C° 0 mm 0 mps 644 mmHg 62%
10:00 +1°C° 0 mm 1 mps 644 mmHg 60%
11:00 +2°C° 0 mm 1 mps 643 mmHg 58%
12:00 +3°C° 0 mm 1 mps 643 mmHg 55%
13:00 +2°C° 0.2 mm 1 mps 642 mmHg 68%
14:00 +1°C° 0.2 mm 1 mps 642 mmHg 80%
15:00 -1°C° 0.2 mm 0 mps 641 mmHg 92%
16:00 -2°C° 0.1 mm 0 mps 641 mmHg 94%
17:00 -1°C° 0.1 mm 1 mps 641 mmHg 95%
18:00 -1°C° 0.1 mm 1 mps 640 mmHg 96%
19:00 -1°C° 0 mm 1 mps 641 mmHg 95%
20:00 -2°C° 0 mm 1 mps 641 mmHg 95%
21:00 -2°C° 0 mm 1 mps 641 mmHg 94%
22:00 -2°C° 0 mm 1 mps 641 mmHg 93%
23:00 -2°C° 0 mm 1 mps 641 mmHg 93%

8 December, Tuesday

Time Temperature Precipitation Wind Pressure Humidity
00:00 -2°C° 0 mm 1 mps 641 mmHg 92%
01:00 -2°C° 0 mm 1 mps 641 mmHg 91%
02:00 -4°C° 0 mm 2 mps 641 mmHg 91%
03:00 -5°C° 0 mm 2 mps 641 mmHg 90%
04:00 -5°C° 0 mm 2 mps 641 mmHg 89%
05:00 -5°C° 0 mm 2 mps 641 mmHg 87%
06:00 -5°C° 0 mm 2 mps 641 mmHg 86%
07:00 -4°C° 0 mm 2 mps 642 mmHg 80%
08:00 -1°C° 0 mm 1 mps 642 mmHg 75%
09:00 0°C° 0 mm 1 mps 643 mmHg 69%
10:00 +1°C° 0.1 mm 1 mps 643 mmHg 67%
11:00 +2°C° 0.1 mm 1 mps 644 mmHg 66%
12:00 +4°C° 0.1 mm 1 mps 644 mmHg 64%
13:00 +3°C° 0.2 mm 1 mps 644 mmHg 67%
14:00 +3°C° 0.2 mm 1 mps 644 mmHg 71%
15:00 +3°C° 0.2 mm 1 mps 644 mmHg 74%
16:00 +1°C° 0.1 mm 1 mps 644 mmHg 79%
17:00 -2°C° 0.1 mm 2 mps 644 mmHg 84%
18:00 -3°C° 0.1 mm 2 mps 644 mmHg 89%
19:00 -4°C° 0.1 mm 2 mps 644 mmHg 88%
20:00 -4°C° 0.1 mm 2 mps 645 mmHg 87%
21:00 -4°C° 0.1 mm 2 mps 645 mmHg 86%
22:00 -4°C° 0 mm 2 mps 645 mmHg 85%
23:00 -6°C° 0 mm 3 mps 646 mmHg 83%

9 December, Wednesday

Time Temperature Precipitation Wind Pressure Humidity
00:00 -6°C° 0 mm 3 mps 646 mmHg 81%
01:00 -7°C° 0 mm 3 mps 646 mmHg 79%
02:00 -7°C° 0 mm 3 mps 646 mmHg 78%
03:00 -7°C° 0 mm 3 mps 646 mmHg 76%
04:00 -7°C° 0 mm 3 mps 646 mmHg 76%
05:00 -7°C° 0 mm 3 mps 647 mmHg 75%
06:00 -7°C° 0 mm 3 mps 647 mmHg 74%
07:00 -6°C° 0 mm 3 mps 648 mmHg 70%
08:00 -4°C° 0 mm 2 mps 648 mmHg 65%
09:00 -3°C° 0 mm 2 mps 649 mmHg 61%
10:00 -1°C° 0 mm 2 mps 650 mmHg 55%
11:00 +1°C° 0 mm 3 mps 650 mmHg 49%
12:00 +2°C° 0 mm 3 mps 650 mmHg 43%
13:00 +3°C° 0 mm 2 mps 650 mmHg 47%
14:00 +3°C° 0 mm 2 mps 650 mmHg 51%
15:00 +3°C° 0 mm 2 mps 650 mmHg 55%
16:00 +1°C° 0 mm 2 mps 650 mmHg 62%
17:00 -2°C° 0 mm 2 mps 650 mmHg 69%
18:00 -4°C° 0 mm 2 mps 649 mmHg 76%
19:00 -4°C° 0 mm 2 mps 650 mmHg 77%
20:00 -4°C° 0 mm 2 mps 650 mmHg 77%
21:00 -4°C° 0 mm 2 mps 650 mmHg 77%
22:00 -4°C° 0 mm 2 mps 650 mmHg 77%
23:00 -4°C° 0 mm 2 mps 650 mmHg 77%

10 December, Thursday

Time Temperature Precipitation Wind Pressure Humidity
00:00 -4°C° 0 mm 2 mps 650 mmHg 77%
01:00 -4°C° 0 mm 2 mps 650 mmHg 77%
02:00 -2°C° 0 mm 1 mps 649 mmHg 77%
03:00 -2°C° 0 mm 1 mps 649 mmHg 77%
04:00 -2°C° 0.1 mm 1 mps 649 mmHg 80%
05:00 -1°C° 0.1 mm 1 mps 649 mmHg 83%
06:00 -1°C° 0.1 mm 1 mps 649 mmHg 86%
07:00 0°C° 0.2 mm 1 mps 649 mmHg 83%
08:00 +1°C° 0.2 mm 1 mps 650 mmHg 81%
09:00 +2°C° 0.2 mm 1 mps 650 mmHg 79%
10:00 +4°C° 0 mm 1 mps 651 mmHg 76%
11:00 +5°C° 0 mm 1 mps 651 mmHg 73%
12:00 +6°C° 0 mm 1 mps 651 mmHg 71%
13:00 +6°C° 0 mm 1 mps 651 mmHg 73%
14:00 +6°C° 0 mm 1 mps 651 mmHg 75%
15:00 +6°C° 0 mm 1 mps 651 mmHg 77%
16:00 +5°C° 0 mm 1 mps 650 mmHg 81%
17:00 +4°C° 0 mm 1 mps 650 mmHg 85%
18:00 +3°C° 0 mm 1 mps 649 mmHg 89%
19:00 +3°C° 0.2 mm 1 mps 649 mmHg 90%
20:00 +3°C° 0.2 mm 1 mps 649 mmHg 91%
21:00 +3°C° 0.2 mm 1 mps 649 mmHg 91%
22:00 +3°C° 0.3 mm 1 mps 649 mmHg 92%
23:00 +3°C° 0.3 mm 1 mps 649 mmHg 92%
Show more